THOR ABLESTAR DEB, 4028

Orbit data source: Space-Track

THOR ABLESTAR DEB, 4028 is space debris in LEO originally from a launch on Thu, 29 Jun 1961 UTC launched from the Air Force Eastern Test Range (AFETR). Debris objects in space refer to the collection of defunct objects orbiting the Earth. Examples of debris include non-operational satellites, rocket bodies, and fragments generated from explosions, collisions, or faulty payload assembly.

Loading next visibility...
Identifier
4028, 1961-015JQ
Orbit
LEO
Country
Flag of USUS
Related business
Manufacturer
Unknown
Mission
Spacecraft
Bus & Motor
Unknown
Mass
Unknown
Launch date (UTC)
1961-06-29 (64 years ago)
Launch vehicle
Unknown
Launch site
Air Force Eastern Test Range (AFETR)
Object type
Payload
Rocket body
Debris
Shape & HBR
Unknown shape, 0.1 m
Radar Cross Section
Small (<0.1 m²)

Expand to show TLE details & history
Last TLE update: 4 hours ago

TLE from 4 hours ago
0 THOR ABLESTAR DEB
1 04028U 61015JQ  25298.31577791  .00002311  00000-0  45264-3 0  9994
2 04028  66.7509 265.5322 0094890 181.6077 178.4748 14.61915015339472
Epoch: 2025-10-25T07:34Z
TLE epoch observation values (Epoch: 2025-10-25T07:34:43.211Z)
Latitude
-0.00002°
Longitude
117.90406°
Altitude
756.165 km
Speed
7.441 km/s
True Right ascension
17h 42m 07s
True Declination
0° 00' 00"
Sunlit
Object was in daylight at epoch
Visualization orbit readout
Latitude
Unknown
Longitude
Unknown
Altitude
Unknown
Speed
Unknown
Apparent Right ascension
Unknown
Apparent Declination
Unknown
Sunlit
N/A
Visualization observer readout
Local Sidereal Time
07:06:19
Azimuth
Unknown
Elevation
Unknown
Doppler factor
Unknown
Orbital elements
Apogee altitude
752.367 km
Perigee altitude
618.316 km
Semi-major axis
7,063.479 km
Eccentricity
0.00949
Inclination
66.7509°
RAAN
265.5322°
Arg. of periapsis
181.6077°
True anomaly
178.5034°
Mean anomaly
178.4748°
Eccentric anomaly
178.48913°
Mean motion
3.65608 °/min
Orbital period
98.47 mins
BSTAR
0.00045264
Loading maneuver chart data...
Computing Atmospheric mass density...

Documentation

Showing up to 5 results
|